User: anonymous   Login
Location: Bangkok
(13.7500°N, 100.5170°E)
Time: 13:21:57
(UTC+07:00)
Language:

ERBS - Orbit

View from above orbital plane
View from above orbital plane
View from above satellite
View from above satellite

Ground track
Ground track

The orbit data is extracted from the following two-line orbital elements,

1 15354U 84108B   17080.56349357 +.00002560 +00000-0 +66028-4 0  9996
2 15354 057.0082 155.4880 0007092 322.4268 037.6291 15.43037525784673
Epoch (UTC): 21 March 2017 13:31:25
Eccentricity: 0.0007092
inclination: 57.0082°
perigee height: 432 km
apogee height: 442 km
right ascension of ascending node: 155.4880°
argument of perigee: 322.4268°
revolutions per day: 15.43037525
mean anomaly at epoch: 37.6291°
orbit number at epoch: 78467

The dashed part of the orbit path shows where the satellite is in the earth's shadow,  

DLR